Time,TemperatureF,DewpointF,PressureIn,WindDirection,WindDirectionDegrees,WindSpeedMPH,WindSpeedGustMPH,Humidity,HourlyPrecipIn,Conditions,Clouds,dailyrainin,SolarRadiationWatts/m^2,SoftwareType,DateUTC
2013-02-25 00:01:00,24.0,14.0,-100.00,WSW,240,6.0,8.0,66,-99.99,,,0.00,0.000000,,2013-02-25 05:01:00,
2013-02-25 00:11:00,24.0,14.0,-100.00,WSW,240,6.0,8.0,66,-99.99,,,0.00,0.000000,,2013-02-25 05:11:00,
2013-02-25 00:42:00,24.0,15.0,-100.00,WSW,246,6.0,8.0,69,0.00,,,0.00,0.000000,,2013-02-25 05:42:00,
2013-02-25 00:52:00,24.0,15.0,-100.00,WSW,246,6.0,8.0,69,0.00,,,0.00,0.000000,,2013-02-25 05:52:00,
2013-02-25 01:03:00,24.0,15.0,-100.00,WSW,246,6.0,8.0,69,0.00,,,0.00,0.000000,,2013-02-25 06:03:00,
2013-02-25 01:12:00,24.0,15.0,-100.00,WSW,246,6.0,8.0,69,0.00,,,0.00,0.000000,,2013-02-25 06:12:00,
2013-02-25 01:42:00,25.0,17.0,-100.00,SW,231,4.0,7.0,71,0.00,,,0.00,0.000000,,2013-02-25 06:42:00,
2013-02-25 01:52:00,25.0,17.0,-100.00,SW,231,4.0,7.0,71,0.00,,,0.00,0.000000,,2013-02-25 06:52:00,
2013-02-25 02:01:00,25.0,17.0,-100.00,SW,231,4.0,7.0,71,0.00,,,0.00,0.000000,,2013-02-25 07:01:00,
2013-02-25 02:11:00,25.0,17.0,-100.00,SW,231,4.0,7.0,71,0.00,,,0.00,0.000000,,2013-02-25 07:11:00,
2013-02-25 02:42:00,24.0,16.0,-100.00,South,185,1.0,6.0,70,0.00,,,0.00,0.000000,,2013-02-25 07:42:00,
2013-02-25 02:52:00,24.0,16.0,-100.00,South,185,1.0,6.0,70,0.00,,,0.00,0.000000,,2013-02-25 07:52:00,
2013-02-25 03:01:00,24.0,16.0,-100.00,South,185,1.0,6.0,70,0.00,,,0.00,0.000000,,2013-02-25 08:01:00,
2013-02-25 03:11:00,24.0,16.0,-100.00,South,185,1.0,6.0,70,0.00,,,0.00,0.000000,,2013-02-25 08:11:00,
2013-02-25 03:42:00,24.0,17.0,-100.00,SE,126,1.0,4.0,74,0.00,,,-99.99,0.000000,,2013-02-25 08:42:00,
2013-02-25 03:52:00,24.0,17.0,-100.00,SE,126,1.0,4.0,74,0.00,,,-99.99,0.000000,,2013-02-25 08:52:00,
2013-02-25 04:02:00,24.0,17.0,-100.00,SE,126,1.0,4.0,74,0.00,,,-99.99,0.000000,,2013-02-25 09:02:00,
2013-02-25 04:12:00,24.0,17.0,-100.00,SE,126,1.0,4.0,74,0.00,,,-99.99,0.000000,,2013-02-25 09:12:00,
2013-02-25 04:32:00,24.0,18.0,-100.00,WNW,294,1.0,3.0,77,0.00,,,0.00,0.000000,,2013-02-25 09:32:00,
2013-02-25 04:42:00,24.0,18.0,-100.00,WNW,294,1.0,3.0,77,0.00,,,0.00,0.000000,,2013-02-25 09:42:00,
2013-02-25 04:52:00,24.0,18.0,-100.00,WNW,294,1.0,3.0,77,0.00,,,0.00,0.000000,,2013-02-25 09:52:00,
2013-02-25 05:01:00,24.0,18.0,-100.00,WNW,294,1.0,3.0,77,0.00,,,0.00,0.000000,,2013-02-25 10:01:00,
2013-02-25 05:11:00,24.0,18.0,-100.00,WNW,294,1.0,3.0,77,0.00,,,0.00,0.000000,,2013-02-25 10:11:00,
2013-02-25 05:42:00,24.0,18.0,-100.00,SW,231,2.0,4.0,78,0.00,,,0.00,0.000000,,2013-02-25 10:42:00,
2013-02-25 05:52:00,24.0,18.0,-100.00,SW,231,2.0,4.0,78,0.00,,,0.00,0.000000,,2013-02-25 10:52:00,
2013-02-25 06:01:00,24.0,18.0,-100.00,SW,231,2.0,4.0,78,0.00,,,0.00,0.000000,,2013-02-25 11:01:00,
2013-02-25 06:11:00,24.0,18.0,-100.00,SW,231,2.0,4.0,78,0.00,,,0.00,0.000000,,2013-02-25 11:11:00,
2013-02-25 06:32:00,25.0,19.0,-100.00,SW,218,3.0,5.0,79,0.00,,,-99.99,0.000000,,2013-02-25 11:32:00,
2013-02-25 06:42:00,25.0,19.0,-100.00,SW,218,3.0,5.0,79,0.00,,,-99.99,0.000000,,2013-02-25 11:42:00,
2013-02-25 06:52:00,25.0,19.0,-100.00,SW,218,3.0,5.0,79,0.00,,,-99.99,0.000000,,2013-02-25 11:52:00,
2013-02-25 07:02:00,25.0,19.0,-100.00,SW,218,3.0,5.0,79,0.00,,,-99.99,0.000000,,2013-02-25 12:02:00,
2013-02-25 07:11:00,25.0,19.0,-100.00,SW,218,3.0,5.0,79,0.00,,,-99.99,0.000000,,2013-02-25 12:11:00,
2013-02-25 07:32:00,25.0,18.0,-100.00,NE,45,1.0,4.0,75,0.00,,,0.00,1.000000,,2013-02-25 12:32:00,
2013-02-25 07:42:00,25.0,18.0,-100.00,NE,45,1.0,4.0,75,0.00,,,0.00,1.000000,,2013-02-25 12:42:00,
2013-02-25 07:56:00,25.0,18.0,-100.00,NE,45,1.0,4.0,75,0.00,,,0.00,1.000000,,2013-02-25 12:56:00,
2013-02-25 08:02:00,25.0,18.0,-100.00,NE,45,1.0,4.0,75,0.00,,,0.00,1.000000,,2013-02-25 13:02:00,
2013-02-25 08:12:00,25.0,18.0,-100.00,NE,45,1.0,4.0,75,0.00,,,0.00,1.000000,,2013-02-25 13:12:00,
2013-02-25 08:17:00,28.0,20.0,-100.00,NNE,27,2.0,5.0,73,0.00,,,0.00,60.000000,,2013-02-25 13:17:00,
2013-02-25 08:42:00,28.0,20.0,-100.00,NNE,27,2.0,5.0,73,0.00,,,0.00,60.000000,,2013-02-25 13:42:00,
2013-02-25 08:52:00,28.0,20.0,-100.00,NNE,27,2.0,5.0,73,0.00,,,0.00,60.000000,,2013-02-25 13:52:00,
2013-02-25 09:03:00,28.0,20.0,-100.00,NNE,27,2.0,5.0,73,0.00,,,0.00,60.000000,,2013-02-25 14:03:00,
2013-02-25 09:32:00,30.0,21.0,-100.00,NNE,25,5.0,7.0,68,0.00,,,0.00,244.000000,,2013-02-25 14:32:00,
2013-02-25 09:42:00,30.0,21.0,-100.00,NNE,25,5.0,7.0,68,0.00,,,0.00,244.000000,,2013-02-25 14:42:00,
2013-02-25 09:52:00,30.0,21.0,-100.00,NNE,25,5.0,7.0,68,0.00,,,0.00,244.000000,,2013-02-25 14:52:00,
2013-02-25 10:03:00,30.0,21.0,-100.00,NNE,25,5.0,7.0,68,0.00,,,0.00,244.000000,,2013-02-25 15:03:00,
2013-02-25 10:11:00,30.0,21.0,-100.00,NNE,25,5.0,7.0,68,0.00,,,0.00,244.000000,,2013-02-25 15:11:00,
2013-02-25 10:32:00,32.0,19.0,-100.00,NNE,19,6.0,10.0,59,0.00,,,0.00,397.000000,,2013-02-25 15:32:00,
2013-02-25 10:42:00,32.0,19.0,-100.00,NNE,19,6.0,10.0,59,0.00,,,0.00,397.000000,,2013-02-25 15:42:00,
2013-02-25 10:52:00,32.0,19.0,-100.00,NNE,19,6.0,10.0,59,0.00,,,0.00,397.000000,,2013-02-25 15:52:00,
2013-02-25 11:02:00,32.0,19.0,-100.00,NNE,19,6.0,10.0,59,0.00,,,0.00,397.000000,,2013-02-25 16:02:00,
2013-02-25 11:12:00,32.0,19.0,-100.00,NNE,19,6.0,10.0,59,0.00,,,0.00,397.000000,,2013-02-25 16:12:00,
2013-02-25 11:42:00,35.0,20.0,-100.00,NE,39,4.0,9.0,53,0.00,,,0.00,478.000000,,2013-02-25 16:42:00,
2013-02-25 11:52:00,35.0,20.0,-100.00,NE,39,4.0,9.0,53,0.00,,,0.00,478.000000,,2013-02-25 16:52:00,
2013-02-25 12:02:00,35.0,20.0,-100.00,NE,39,4.0,9.0,53,0.00,,,0.00,478.000000,,2013-02-25 17:02:00,
2013-02-25 12:11:00,35.0,20.0,-100.00,NE,39,4.0,9.0,53,0.00,,,0.00,478.000000,,2013-02-25 17:11:00,
2013-02-25 12:42:00,37.0,20.0,-100.00,North,2,4.0,10.0,49,0.00,,,0.00,575.000000,,2013-02-25 17:42:00,
2013-02-25 12:52:00,37.0,20.0,-100.00,North,2,4.0,10.0,49,0.00,,,0.00,575.000000,,2013-02-25 17:52:00,
2013-02-25 13:02:00,37.0,20.0,-100.00,North,2,4.0,10.0,49,0.00,,,0.00,575.000000,,2013-02-25 18:02:00,
2013-02-25 13:12:00,37.0,20.0,-100.00,North,2,4.0,10.0,49,0.00,,,0.00,575.000000,,2013-02-25 18:12:00,
2013-02-25 13:42:00,40.0,19.0,-100.00,NE,50,4.0,11.0,43,0.00,,,0.00,639.000000,,2013-02-25 18:42:00,
2013-02-25 13:52:00,40.0,19.0,-100.00,NE,50,4.0,11.0,43,0.00,,,0.00,639.000000,,2013-02-25 18:52:00,
2013-02-25 14:02:00,40.0,19.0,-100.00,NE,50,4.0,11.0,43,0.00,,,0.00,639.000000,,2013-02-25 19:02:00,
2013-02-25 14:11:00,40.0,19.0,-100.00,NE,50,4.0,11.0,43,0.00,,,0.00,639.000000,,2013-02-25 19:11:00,
2013-02-25 14:42:00,43.0,18.0,-100.00,ENE,60,5.0,11.0,36,0.00,,,0.00,640.000000,,2013-02-25 19:42:00,
2013-02-25 14:52:00,43.0,18.0,-100.00,ENE,60,5.0,11.0,36,0.00,,,0.00,640.000000,,2013-02-25 19:52:00,
2013-02-25 15:01:00,43.0,18.0,-100.00,ENE,60,5.0,11.0,36,0.00,,,0.00,640.000000,,2013-02-25 20:01:00,
2013-02-25 15:11:00,43.0,18.0,-100.00,ENE,60,5.0,11.0,36,0.00,,,0.00,640.000000,,2013-02-25 20:11:00,
2013-02-25 15:42:00,44.0,17.0,-100.00,NNE,27,3.0,10.0,33,0.00,,,0.00,543.000000,,2013-02-25 20:42:00,
2013-02-25 15:52:00,44.0,17.0,-100.00,NNE,27,3.0,10.0,33,0.00,,,0.00,543.000000,,2013-02-25 20:52:00,
2013-02-25 16:02:00,44.0,17.0,-100.00,NNE,27,3.0,10.0,33,0.00,,,0.00,543.000000,,2013-02-25 21:02:00,
2013-02-25 16:11:00,44.0,17.0,-100.00,NNE,27,3.0,10.0,33,0.00,,,0.00,543.000000,,2013-02-25 21:11:00,
2013-02-25 16:42:00,44.0,17.0,-100.00,NE,51,5.0,9.0,34,0.00,,,0.00,399.000000,,2013-02-25 21:42:00,
2013-02-25 16:52:00,44.0,17.0,-100.00,NE,51,5.0,9.0,34,0.00,,,0.00,399.000000,,2013-02-25 21:52:00,
2013-02-25 17:02:00,44.0,17.0,-100.00,NE,51,5.0,9.0,34,0.00,,,0.00,399.000000,,2013-02-25 22:02:00,
2013-02-25 17:11:00,44.0,17.0,-100.00,NE,51,5.0,9.0,34,0.00,,,0.00,399.000000,,2013-02-25 22:11:00,
2013-02-25 17:32:00,42.0,17.0,-100.00,ENE,69,9.0,13.0,36,0.00,,,0.00,223.000000,,2013-02-25 22:32:00,
2013-02-25 17:42:00,42.0,17.0,-100.00,ENE,69,9.0,13.0,36,0.00,,,0.00,223.000000,,2013-02-25 22:42:00,
2013-02-25 17:52:00,42.0,17.0,-100.00,ENE,69,9.0,13.0,36,0.00,,,0.00,223.000000,,2013-02-25 22:52:00,
2013-02-25 18:01:00,42.0,17.0,-100.00,ENE,69,9.0,13.0,36,0.00,,,0.00,223.000000,,2013-02-25 23:01:00,
2013-02-25 18:11:00,42.0,17.0,-100.00,ENE,69,9.0,13.0,36,0.00,,,0.00,223.000000,,2013-02-25 23:11:00,
2013-02-25 18:32:00,38.0,15.0,-100.00,East,80,6.0,13.0,39,0.00,,,0.00,42.000000,,2013-02-25 23:32:00,
2013-02-25 18:42:00,38.0,15.0,-100.00,East,80,6.0,13.0,39,0.00,,,0.00,42.000000,,2013-02-25 23:42:00,
2013-02-25 18:52:00,38.0,15.0,-100.00,East,80,6.0,13.0,39,0.00,,,0.00,42.000000,,2013-02-25 23:52:00,
2013-02-25 19:02:00,38.0,15.0,-100.00,East,80,6.0,13.0,39,0.00,,,0.00,42.000000,,2013-02-26 00:02:00,
2013-02-25 19:12:00,38.0,15.0,-100.00,East,80,6.0,13.0,39,0.00,,,0.00,42.000000,,2013-02-26 00:12:00,
2013-02-25 19:32:00,37.0,16.0,-100.00,ENE,77,8.0,14.0,41,0.00,,,0.00,0.000000,,2013-02-26 00:32:00,
2013-02-25 19:42:00,37.0,16.0,-100.00,ENE,77,8.0,14.0,41,0.00,,,0.00,0.000000,,2013-02-26 00:42:00,
2013-02-25 19:52:00,37.0,16.0,-100.00,ENE,77,8.0,14.0,41,0.00,,,0.00,0.000000,,2013-02-26 00:52:00,
2013-02-25 20:02:00,37.0,16.0,-100.00,ENE,77,8.0,14.0,41,0.00,,,0.00,0.000000,,2013-02-26 01:02:00,
2013-02-25 20:11:00,37.0,16.0,-100.00,ENE,77,8.0,14.0,41,0.00,,,0.00,0.000000,,2013-02-26 01:11:00,
2013-02-25 20:42:00,36.0,16.0,-100.00,ENE,77,7.0,15.0,44,0.00,,,0.00,0.000000,,2013-02-26 01:42:00,
2013-02-25 20:52:00,36.0,16.0,-100.00,ENE,77,7.0,15.0,44,0.00,,,0.00,0.000000,,2013-02-26 01:52:00,
2013-02-25 21:01:00,36.0,16.0,-100.00,ENE,77,7.0,15.0,44,0.00,,,0.00,0.000000,,2013-02-26 02:01:00,
2013-02-25 21:11:00,36.0,16.0,-100.00,ENE,77,7.0,15.0,44,0.00,,,0.00,0.000000,,2013-02-26 02:11:00,
2013-02-25 21:42:00,35.0,15.0,-100.00,ESE,102,7.0,14.0,43,0.00,,,0.00,0.000000,,2013-02-26 02:42:00,
2013-02-25 21:52:00,35.0,15.0,-100.00,ESE,102,7.0,14.0,43,0.00,,,0.00,0.000000,,2013-02-26 02:52:00,
2013-02-25 22:02:00,35.0,15.0,-100.00,ESE,102,7.0,14.0,43,0.00,,,0.00,0.000000,,2013-02-26 03:02:00,
2013-02-25 22:11:00,35.0,15.0,-100.00,ESE,102,7.0,14.0,43,0.00,,,0.00,0.000000,,2013-02-26 03:11:00,
2013-02-25 22:42:00,35.0,15.0,-100.00,East,99,6.0,12.0,44,0.00,,,-99.99,0.000000,,2013-02-26 03:42:00,
2013-02-25 22:52:00,35.0,15.0,-100.00,East,99,6.0,12.0,44,0.00,,,-99.99,0.000000,,2013-02-26 03:52:00,
2013-02-25 23:02:00,35.0,15.0,-100.00,East,99,6.0,12.0,44,0.00,,,-99.99,0.000000,,2013-02-26 04:02:00,
2013-02-25 23:11:00,35.0,15.0,-100.00,East,99,6.0,12.0,44,0.00,,,-99.99,0.000000,,2013-02-26 04:11:00,
2013-02-25 23:42:00,34.0,15.0,-100.00,East,96,6.0,15.0,45,0.00,,,0.00,0.000000,,2013-02-26 04:42:00,
2013-02-25 23:52:00,34.0,15.0,-100.00,East,96,6.0,15.0,45,0.00,,,0.00,0.000000,,2013-02-26 04:52:00,